This demonstration page uses our WeatherBlox Daily Observations layout. Learn more.

Left ArrowRight Arrow

Hourly Observations for December 3, 2022

Temp ( °F °C ) Dew Point ( °F °C ) Humidity (%) Winds ( mph kmh ) Pressure ( in mb ) Visibility ( mi km ) Precip ( " mm )
12:36 am 00:36 Partly Cloudy 41 5 30 -1.1 65 65 NW 22 35 30.22 1023 10 16 0.00 0.00
12:52 am 00:52 Mostly Clear 40 4.4 30 -1.1 67 67 NW 20 31 30.21 1023 10 16 0.00 0.00
1:52 am 01:52 Partly Cloudy 35 1.7 26 -3.3 69 69 NNW 22 35 30.27 1025 10 16 0.00 0.00
2:52 am 02:52 Clear 32 0 22 -5.6 66 66 NNW 17 28 30.32 1027 10 16 0.00 0.00
3:52 am 03:52 Clear 30 -1.1 20 -6.7 66 66 NNW 16 26 30.37 1028 10 16 0.00 0.00
4:52 am 04:52 Clear 28 -2.2 19 -7.2 68 68 NNW 14 22 30.41 1030 10 16 0.00 0.00
5:52 am 05:52 Clear 27 -2.8 18 -7.8 68 68 NNW 9 15 30.45 1031 10 16 0.00 0.00
6:52 am 06:52 Clear 26 -3.3 18 -7.8 71 71 NNW 9 15 30.48 1032 10 16 0.00 0.00
7:52 am 07:52 Sunny 25 -3.9 16 -8.9 68 68 N 13 20 30.52 1033 10 16 0.00 0.00
8:52 am 08:52 Sunny 27 -2.8 16 -8.9 63 63 N 10 17 30.54 1034 10 16 0.00 0.00
9:52 am 09:52 Sunny 30 -1.1 16 -8.9 55 55 NNW 10 17 30.55 1035 10 16 0.00 0.00
10:52 am 10:52 Sunny 32 0 14 -10 47 47 NNE 8 13 30.55 1035 10 16 0.00 0.00
11:52 am 11:52 Sunny 35 1.7 17 -8.3 47 47 N 8 13 30.55 1035 10 16 0.00 0.00
12:52 pm 12:52 Sunny 36 2.2 17 -8.3 46 46 VRB 5 7 30.54 1034 10 16 0.00 0.00
1:52 pm 13:52 Sunny 38 3.3 17 -8.3 42 42 VRB 7 11 30.54 1034 10 16 0.00 0.00
2:52 pm 14:52 Sunny 37 2.8 17 -8.3 44 44 N 5 7 30.52 1034 10 16 0.00 0.00
3:52 pm 15:52 Sunny 36 2.2 17 -8.3 46 46 N 6 9 30.52 1034 10 16 0.00 0.00
4:52 pm 16:52 Sunny 33 0.6 18 -7.8 53 53 N 5 7 30.50 1033 10 16 0.00 0.00
5:52 pm 17:52 Clear 33 0.6 16 -8.9 49 49 N 3 6 30.49 1032 10 16 0.00 0.00
6:52 pm 18:52 Clear 32 0 16 -8.9 51 51 NNE 3 6 30.49 1032 10 16 0.00 0.00
7:52 pm 19:52 Clear 30 -1.1 16 -8.9 55 55 ENE 5 7 30.47 1032 10 16 0.00 0.00
8:52 pm 20:52 Clear 28 -2.2 17 -8.3 63 63 E 3 6 30.46 1032 10 16 0.00 0.00
9:52 pm 21:52 Clear 29 -1.7 18 -7.8 63 63 Calm 30.46 1032 10 16 0.00 0.00
10:52 pm 22:52 Clear 31 -0.6 17 -8.3 56 56 E 5 7 30.45 1031 10 16 0.00 0.00
11:52 pm 23:52 Clear 29 -1.7 18 -7.8 63 63 ESE 3 6 30.43 1031 10 16 0.00 0.00

Powered by AerisWeather